Location: Chapeiry
(45.8461°N, 6.0376°E)
Time: 07:05:33
(UTC+00:00)

Daily predictions for brighter satellites

Satellite Brightness Start Highest point End
(mag) Time Altitude Azimuth Time Altitude Azimuth Time Altitude Azimuth
COSMOS 2428 3.7 17:14:48 10° SSE 17:19:25 26° ESE 17:24:03 10° NE
Cosmos 2333 4.3 17:14:31 10° S 17:20:01 60° ESE 17:25:37 10° NNE
CZ-4C R/B 4.1 17:17:34 10° NE 17:20:43 27° E 17:23:44 10° SSE
COSMO-SKYMED 1 2.9 17:22:15 10° NNE 17:26:27 46° E 17:30:37 10° S
SL-4 R/B 1.7 17:25:07 10° WNW 17:28:34 60° NNE 17:32:12 10° ESE
Cosmos 1726 Rocket 3.6 17:24:34 10° N 17:28:55 89° W 17:33:15 10° S
USA 281 4.1 17:24:37 10° NNE 17:30:57 52° WNW 17:37:15 10° SW
Cosmos 1825 2.4 17:27:22 10° SSW 17:31:01 73° W 17:34:44 10° N
USA 215 3.3 17:25:52 10° ESE 17:32:21 67° NNE 17:38:52 10° NW
Cosmos 540 Rocket 4.4 17:34:56 10° NNW 17:39:57 54° WSW 17:44:55 10° S
S3M 4.4 17:34:00 10° SSE 17:39:58 43° E 17:45:55 10° NNE
Cosmos 2322 3.9 17:34:41 10° S 17:40:11 51° ESE 17:45:43 10° NE
Atlas Centaur 2 4.5 17:35:15 10° SW 17:40:54 25° S 17:47:10 10° SE
Radarsat Rocket 4.4 17:36:36 10° SSE 17:42:50 81° WSW 17:49:55 10° NNW
Cosmos 1626 Rocket 4.2 17:40:52 10° SSE 17:44:44 34° E 17:48:40 10° NNE
Cosmos 1340 2.6 17:44:14 10° N 17:47:55 89° W 17:51:35 10° S
Cosmos 1844 Rocket 4.2 17:43:32 10° NW 17:48:42 40° WSW 17:53:50 10° S
CZ-4 R/B 2.3 17:50:36 10° SE 17:53:59 26° ENE 17:57:20 10° N
CZ-4 R/B 4.5 17:51:34 10° SSE 17:55:41 87° W 17:59:50 10° NNW
PAYLOAD B 4.2 17:53:41 10° SSE 17:59:07 65° ENE 18:04:34 10° N
Cosmos 841 Rocket 4.2 17:56:55 10° NNW 18:02:06 59° WSW 18:07:13 10° S
Cosmos 1814 Rocket 4.0 17:57:06 10° NNW 18:02:28 69° ENE 18:07:46 10° SSE
Cosmos 1869 4.3 18:02:33 10° NNW 18:06:22 50° W 18:10:13 10° S
Cosmos 2058 3.8 18:05:14 10° SSE 18:08:46 27° E 18:12:09 11° NNE
PSLV R/B 3.6 18:05:29 10° SSE 18:09:08 65° ENE 18:12:53 10° N
Cosmos 2315 Rocket 4.2 18:06:19 10° SSE 18:12:19 47° E 18:18:22 10° NNE
ATLAS 5 CENTAUR R/B 3.9 18:10:17 10° N 18:12:23 13° NNE 18:13:56 11° NE
Cosmos 1386 Rocket 4.4 18:07:21 10° N 18:13:24 89° W 18:19:30 10° S
Okean O Rocket 2.0 18:09:45 10° SE 18:13:51 40° ENE 18:17:59 10° N
YAOGAN 1 2.5 18:09:55 10° SSE 18:14:12 69° ENE 18:18:30 10° N
Cosmos 1932 4.5 18:08:00 10° SSW 18:14:22 76° ESE 18:20:56 10° NE
SKYMED 2 4.3 18:10:23 10° N 18:14:39 56° WNW 18:18:54 10° SSW
Cosmos 2219 Rocket 2.4 18:09:43 10° SSW 18:15:18 72° WNW 18:20:55 10° NNE
CZ-4B R/B 3.2 18:10:11 10° SSE 18:15:29 63° ENE 18:20:56 10° N
BlueWalker 3 1.9 18:13:59 10° NW 18:17:52 66° NNE 18:19:41 29° ESE
Feng Yun 1-1 Rocket 4.4 18:14:19 10° SE 18:19:32 46° ENE 18:24:40 10° N
Cosmos 2360 Rocket 3.7 18:14:29 10° WSW 18:19:36 34° NW 18:24:46 10° NNE
Cosmos 1356 2.9 18:17:48 10° N 18:20:52 73° E 18:23:54 10° SSE
Cosmos 1606 2.7 18:18:14 10° N 18:22:05 84° W 18:25:53 10° S
Cosmos 2058 Rocket 4.4 18:18:31 10° NNW 18:22:42 43° W 18:26:54 10° SSW
Cosmos-2242 3.1 18:19:29 10° N 18:23:38 50° ENE 18:27:46 10° SSE
Okean 1-7 Rocket 3.5 18:19:15 10° S 18:23:41 84° E 18:28:13 10° N
Lacrosse 5 3.4 18:19:32 10° WNW 18:23:50 26° NNW 18:27:06 15° NE
Cosmos 1745 Rocket 4.1 18:17:47 10° N 18:24:02 81° W 18:30:10 10° S
Okean-O 4.3 18:28:31 17° NE 18:28:31 17° NE 18:30:13 10° NNE
BREEZE-M DEB (TANK) 3.6 18:16:47 10° WSW 18:31:14 85° SSE 18:33:28 31° ENE
Cosmos 2237 Rocket 2.6 18:26:22 10° S 18:31:35 38° ESE 18:33:55 27° ENE
Cosmos 1400 Rocket 3.8 18:29:48 10° SSE 18:32:08 29° SE 18:32:08 29° SE
Cosmos 968 Rocket 3.4 18:29:24 10° SSW 18:34:36 90° W 18:39:55 10° NNE
MINOTAUR 4 R/B 3.8 18:31:48 13° NNE 18:34:51 85° ESE 18:38:15 10° SSW
SJ-6B 3.6 18:36:33 33° NE 18:36:33 33° NE 18:39:28 10° N
Lacrosse 5 rocket 4.5 18:35:27 10° WSW 18:36:03 10° WSW 18:36:38 10° SW
Cosmos 2322 Rocket 4.4 18:32:31 10° W 18:36:38 20° NW 18:40:46 10° N
Cosmos 2278 Rocket 2.1 18:31:17 10° NNW 18:36:56 65° ENE 18:41:02 19° SE
Cosmos 1709 Rocket 3.9 18:35:32 10° N 18:41:41 89° ENE 18:47:48 10° S
Cosmos 1980 3.8 18:37:25 10° S 18:42:49 50° ESE 18:45:15 30° NE
CSL-04 Debris 4.3 18:42:06 29° SE 18:44:28 48° ENE 18:49:38 10° N
CSL-04 Rocket 3.9 18:43:56 37° ESE 18:45:15 43° ENE 18:50:23 10° N
Cosmos 2208 Rocket 3.8 18:40:41 10° NNW 18:45:54 77° ENE 18:49:56 17° SSE
USA 81 4.2 18:40:53 10° S 18:46:07 75° W 18:51:26 10° N
Cosmos 2369 Rocket 4.1 18:44:49 10° N 18:46:48 13° NNE 18:46:48 13° NNE
Iridium 2 4.1 18:44:16 10° NNW 18:47:51 60° W 18:51:25 10° S
Cosmos 1943 Rocket 2.9 18:43:30 10° NNW 18:48:37 33° NE 18:48:39 33° NE
Cosmos 2333 Rocket 3.9 18:44:09 10° WSW 18:49:10 31° NW 18:54:14 10° N
Cosmos 1570 Rocket 4.2 18:46:38 10° NNW 18:51:59 76° WSW 18:57:17 10° SSE
IGS 5A 3.2 18:52:10 47° SSE 18:53:16 75° ENE 18:57:24 10° N
Cosmos 1602 Rocket 3.7 18:49:19 10° SSW 18:53:36 70° W 18:57:56 10° N
Cosmos 1356 Rocket 3.3 18:49:56 10° SSW 18:53:53 79° W 18:56:49 18° N
Spot 1 3.9 18:59:32 28° N 19:01:37 81° WNW 19:05:43 10° SSW
Cosmos 2074 Rocket 4.1 18:56:08 10° N 19:02:15 49° ENE 19:03:04 47° E
COSMOS 2428 3.4 18:57:49 10° SW 19:03:20 52° WNW 19:08:53 10° NNE
Cosmos 2184 Rocket 4.1 18:59:53 10° N 19:05:59 50° ENE 19:06:17 50° E
SL-4 R/B 3.4 19:04:33 10° W 19:07:41 28° SW 19:08:15 27° SSW
Cosmos 1758 Rocket 4.1 19:04:25 10° SSW 19:08:41 57° WNW 19:13:01 10° N
NOSS 0 Rocket 3.9 19:02:39 10° SSW 19:08:54 84° WNW 19:13:26 20° NNE
SJ 16-02 3.6 19:04:49 10° S 19:05:27 14° S 19:05:27 14° S
Gblst 52 Del rocket 4.4 19:03:45 10° WNW 19:09:10 53° NNE 19:09:52 49° NE
Cosmos 1812 Rocket 4.5 19:06:09 10° NNW 19:10:27 48° W 19:14:42 10° SSW
Landsat 7 3.9 19:15:20 62° N 19:15:20 62° N 19:19:20 10° N
USA 215 4.2 19:09:54 13° SSE 19:15:32 44° SW 19:21:47 10° WNW
Cosmos 2154 Rocket 4.5 19:12:34 10° N 19:17:23 42° NE 19:17:23 42° NE
CZ-4 R/B 3.3 19:25:13 10° SSW 19:28:47 29° W 19:32:19 10° NW
Lacrosse 4 Rocket 3.5 19:30:20 10° NNW 19:31:44 20° NNW 19:31:44 20° NNW
Resurs 01 Rocket 4.3 19:40:03 11° N 19:40:03 11° N 19:40:13 10° N
Cosmos 2285 Rocket 4.2 19:35:50 10° NNW 19:41:01 57° NNE 19:41:01 57° NNE
Okean O Rocket 3.9 19:46:52 10° SW 19:50:19 22° W 19:53:48 10° NW
ATLAS 5 CENTAUR R/B 3.9 19:53:24 10° NNW 19:55:18 22° N 19:55:18 22° N
Lacrosse 5 4.0 20:03:58 10° NW 20:06:18 20° NNW 20:06:18 20° NNW
Cosmos 2237 Rocket 3.4 20:10:23 10° WSW 20:15:39 37° NW 20:15:51 37° NW
Cosmos 2278 Rocket 4.4 20:16:24 10° NW 20:20:28 21° W 20:22:59 16° SW
Cosmos 1943 Rocket 3.9 20:27:08 10° NW 20:30:12 30° WNW 20:30:12 30° WNW
Cosmos 2369 Rocket 4.4 20:27:18 10° NNW 20:28:35 17° NNW 20:28:35 17° NNW
BREEZE-M DEB (TANK) 4.5 20:25:44 10° WSW 20:39:13 64° WSW 20:39:13 64° WSW
